Location: Abraham Lincoln Continuation High School
(33.9711°N, 117.3662°W)
Time: 14:01:25
(UTC+00:00)

CZ-2C R/B - Pass Details

Date: 21 September 2020
Orbit: 704 x 908 km, 98.1° (Epoch: 29 October)

Event Time Altitude Azimuth Distance (km) Brightness Sun altitude
Rises 03:08:18 0° 177° (S) 3,211 6.1 -17.3°
Reaches altitude 10° 03:10:34 10° 181° (S) 2,317 5.4 -17.8°
Maximum altitude 03:15:37 58° 260° (W) 937 3.7 -18.8°
Drops below altitude 10° 03:20:59 10° 339° (NNW) 2,464 6.1 -19.9°
Sets 03:23:28 0° 344° (NNW) 3,433 6.8 -20.4°
